Retour au catalogue

STARLINK-3277

ActifCommunicationsVLEO
NORAD 50182·PAYLOAD·🇺🇸 United States

Lancé Dec 18, 2021 depuis Vandenberg Space Force Base

Loading…

Prochains Passages (prochaines 24 heures)

TLE

FraisSource: CelesTrak SupGP

Époque: Sep 15, 2026, 01:58 UTC

1 50182C 21125AC  26258.08243056  .00014390  00000+0  46272-3 0  2586
2 50182  53.1573 104.0393 0001377  80.4477 249.7735 15.31695267    13

Suivez STARLINK-3277 en temps réel avec AllMySat

Download on the App Store